User: anonymous   Login
Location: Podia
(1.5569°N, 32.3469°E)
Time: 01:50:08
(UTC+00:00)
Language:

Courier 1B Rocket - Orbit

View from above orbital plane
View from above orbital plane
View from above satellite
View from above satellite

Ground track
Ground track

The orbit data is extracted from the following two-line orbital elements,

1    59U 60013B   20264.57721753 +.00000072 +00000-0 -18033-4 0  9994
2    59 028.2486 089.5732 0189213 004.5452 355.6770 13.52978491959492
Epoch (UTC): 20 September 2020 13:51:11
Eccentricity: 0.0189213
inclination: 28.2486°
perigee height: 920 km
apogee height: 1202 km
right ascension of ascending node: 89.5732°
argument of perigee: 4.5452°
revolutions per day: 13.52978491
mean anomaly at epoch: 355.6770°
orbit number at epoch: 95949

The dashed part of the orbit path shows where the satellite is in the earth's shadow,  

DLR